FW7352 Weather Reports


time (UTC)temp
C
wind
direction
speed
KPH
gust
KPH
rain 1hr
cm
rain 24hr
cm
rain mn
cm
humidity
%
barometer
mb
20260507220057 9 262 8.0 25.7 0.00 0.00 0.00 62 1013.6
20260507214548 10 250 9.7 27.4 0.00 0.03 0.00 63 1013.5
20260507213052 11 262 9.7 29.0 0.00 0.03 0.00 60 1013.4
20260507211550 11 267 12.9 25.7 0.00 0.03 0.00 63 1013.4
20260507210105 11 249 12.9 30.6 0.00 0.03 0.00 62 1013.2
20260507204549 11 272 11.3 38.6 0.00 0.25 0.00 61 1013.1
20260507203113 11 319 11.3 32.2 0.00 0.25 0.00 61 1013.4
20260507201550 12 286 9.7 25.7 0.00 0.25 0.00 61 1013.3
20260507200053 11 209 8.0 22.5 0.00 0.25 0.00 63 1013.1
20260507194602 12 260 12.9 22.5 0.00 0.28 0.00 63 1013.4
20260507193050 12 306 8.0 17.7 0.00 0.28 0.00 62 1013.6
20260507191549 12 273 6.4 22.5 0.00 0.28 0.00 63 1013.6
20260507190055 12 279 9.7 24.1 0.00 0.28 0.00 67 1013.7
20260507184550 13 245 11.3 22.5 0.00 0.33 0.00 63 1013.7
20260507183047 12 262 8.0 22.5 0.00 0.33 0.00 75 1013.6
20260507181549 11 228 8.0 29.0 0.00 0.33 0.00 72 1013.5
20260507180048 11 265 8.0 22.5 0.00 0.33 0.00 75 1013.7
20260507174547 10 319 9.7 24.1 0.00 0.33 0.00 77 1013.9
20260507173125 9 225 6.4 22.5 0.00 0.33 0.00 78 1014.1
20260507171554 10 279 9.7 22.5 0.00 0.33 0.00 77 1014.3
20260507170050 10 296 4.8 22.5 0.00 0.33 0.00 81 1014.4
20260507164552 8 293 6.4 24.1 0.00 0.33 0.00 81 1014.5
20260507163047 8 306 4.8 29.0 0.00 0.33 0.00 82 1014.6
20260507161552 10 221 4.8 17.7 0.00 0.33 0.00 81 1014.8
20260507160101 8 236 6.4 16.1 0.00 0.33 0.00 85 1015.0
20260507154557 8 0 4.8 22.5 0.00 0.33 0.00 86 1015.3
20260507153057 8 257 4.8 20.9 0.00 0.33 0.00 86 1015.1
20260507151552 7 246 8.0 20.9 0.00 0.33 0.00 86 1015.3
20260507150051 6 338 8.0 17.7 0.00 0.33 0.00 86 1015.1
20260507144612 6 305 6.4 19.3 0.00 0.33 0.00 91 1015.3
20260507143059 5 275 3.2 11.3 0.00 0.33 0.00 96 1015.4
20260507141557 4 335 3.2 12.9 0.00 0.33 0.00 99 1015.7
20260507140053 3 281 3.2 11.3 0.00 0.33 0.00 99 1015.9
20260507134553 3 278 3.2 14.5 0.00 0.38 0.00 100 1015.9
20260507133125 2 234 4.8 14.5 0.00 0.38 0.00 100 1016.0
20260507131548 3 252 6.4 11.3 0.00 0.38 0.00 100 1016.2
20260507130058 3 348 4.8 11.3 0.00 0.38 0.00 100 1016.0
20260507124555 3 298 1.6 6.4 0.00 0.56 0.00 100 1016.2
20260507123052 3 298 3.2 9.7 0.00 0.56 0.00 100 1016.2
20260507121552 4 0 0.0 4.8 0.00 0.56 0.00 100 1016.0
20260507120048 4 355 0.0 9.7 0.00 0.56 0.00 100 1015.9
20260507114559 4 28 4.8 17.7 0.00 0.79 0.00 100 1015.6
20260507113047 5 296 1.6 11.3 0.00 0.79 0.00 100 1015.5
20260507111549 5 232 4.8 14.5 0.00 0.79 0.00 100 1015.3
20260507110052 5 286 4.8 14.5 0.00 0.79 0.00 100 1015.1
20260507104551 5 319 3.2 9.7 0.00 1.02 0.00 100 1015.2
20260507103054 5 250 3.2 8.0 0.00 1.02 0.00 100 1015.0
20260507101551 5 242 3.2 11.3 0.00 1.02 0.00 100 1015.1
20260507100053 5 272 3.2 12.9 0.00 1.02 0.00 100 1015.3
20260507094559 5 269 3.2 9.7 0.00 1.07 0.00 100 1015.0
20260507093054 5 252 3.2 17.7 0.00 1.07 0.00 100 1015.0
20260507091552 5 219 4.8 11.3 0.00 1.07 0.00 100 1015.0
20260507090051 5 240 3.2 14.5 0.00 1.07 0.00 100 1014.6
20260507084557 6 267 6.4 14.5 0.00 1.07 0.00 100 1015.0
20260507083056 6 254 3.2 16.1 0.00 1.07 0.00 100 1014.9
20260507081557 6 246 0.0 11.3 0.00 1.07 0.00 100 1014.7
20260507080056 6 262 6.4 11.3 0.00 1.07 0.00 100 1015.1
20260507074550 6 251 1.6 14.5 0.00 1.07 0.00 100 1015.2
20260507073101 6 263 3.2 11.3 0.00 1.07 0.00 100 1015.4
20260507071553 6 262 1.6 4.8 0.00 1.07 0.00 100 1015.3
20260507070058 6 248 3.2 16.1 0.00 1.07 0.00 100 1015.2
20260507064555 6 268 3.2 16.1 0.00 1.07 0.00 100 1015.0
20260507063049 6 235 4.8 12.9 0.00 1.07 0.00 100 1015.2
20260507061549 7 269 8.0 16.1 0.00 1.07 0.00 100 1015.3
20260507060056 7 261 6.4 12.9 0.00 1.07 0.00 100 1015.5
20260507054549 7 262 4.8 12.9 0.00 1.07 0.00 100 1015.6
20260507053058 7 225 8.0 19.3 0.00 1.07 0.00 100 1015.7
20260507051551 8 270 8.0 17.7 0.00 1.07 0.00 100 1015.8
20260507050053 8 254 4.8 11.3 0.00 1.07 0.00 100 1015.9
20260507044559 8 243 6.4 16.1 0.00 1.07 0.00 100 1015.7
20260507043056 8 244 4.8 14.5 0.00 1.07 0.00 100 1015.7
20260507041554 8 247 6.4 16.1 0.00 1.07 0.00 100 1015.4
20260507040050 8 253 4.8 12.9 0.00 1.07 0.00 100 1015.5
20260507034553 8 234 4.8 12.9 0.00 1.07 1.07 100 1015.3
20260507033102 9 212 3.2 11.3 0.00 1.07 1.07 100 1015.3
20260507031600 9 233 9.7 22.5 0.00 1.07 1.07 100 1016.5
20260507030107 9 252 6.4 19.3 0.00 1.07 1.07 100 1016.5
20260507024608 9 249 6.4 14.5 0.00 1.07 1.07 100 1016.5
20260507023053 9 223 4.8 11.3 0.00 1.07 1.07 100 1015.9
20260507021557 9 246 6.4 16.1 0.00 1.07 1.07 100 1016.3
20260507020057 9 247 6.4 14.5 0.00 1.07 1.07 100 1016.0
20260507014555 9 277 6.4 11.3 0.00 1.07 1.07 100 1015.8
20260507013053 10 231 4.8 11.3 0.00 1.07 1.07 100 1015.4
20260507011556 10 244 3.2 11.3 0.00 1.07 1.07 100 1016.0
20260507010050 10 227 6.4 11.3 0.00 1.07 1.07 100 1015.9
20260507004551 10 225 3.2 8.0 0.00 1.07 1.07 100 1015.0
20260507003047 10 234 4.8 14.5 0.00 1.07 1.07 100 1015.7
20260507001545 10 248 4.8 11.3 0.00 1.07 1.07 100 1016.0
20260507000046 10 273 3.2 14.5 0.00 1.07 1.07 100 1015.7
20260506234555 10 248 6.4 16.1 0.00 1.07 1.07 100 1015.9
20260506233052 10 257 4.8 14.5 0.00 1.07 1.07 100 1015.7
20260506231554 11 281 8.0 19.3 0.00 1.07 1.07 100 1015.8
20260506230059 11 234 8.0 19.3 0.00 1.07 1.07 100 1015.9
20260506224551 11 265 8.0 19.3 0.00 1.07 1.07 100 1015.8
20260506223048 12 267 8.0 20.9 0.00 1.07 1.07 100 1015.4
20260506221551 12 266 11.3 25.7 0.03 1.07 1.07 100 1015.2